This is the latest recevied weather packets stored in our database for station/object DJ4RO-13. If no packets are shown the sender has not sent any weather packets the latest 10 day(s).
| Time | Temp. | Humidity | Pressure | Rain* | Wind** | Luminosity | Snow |
|---|---|---|---|---|---|---|---|
| 1777582621 | 8.33° C | 78% | 1034.9 hPa | 0 mm | - | 0 W/m² | - |
| 1777582293 | 8.33° C | 78% | 1034.7 hPa | 0 mm | - | 0 W/m² | - |
| 1777581980 | 8.89° C | 77% | 1034.8 hPa | 0 mm | - | 0 W/m² | - |
| 1777581660 | 9.44° C | 76% | 1034.7 hPa | 0 mm | - | 0 W/m² | - |
| 1777581340 | 10° C | 74% | 1034.9 hPa | 0 mm | - | 0 W/m² | - |
| 1777581020 | 10° C | 74% | 1034.8 hPa | 0 mm | - | 0 W/m² | - |
| 1777580700 | 10° C | 73% | 1034.7 hPa | 0 mm | - | 0 W/m² | - |
| 1777580373 | 10° C | 73% | 1034.7 hPa | 0 mm | - | 0 W/m² | - |
| 1777580060 | 10° C | 72% | 1034.9 hPa | 0 mm | - | 0 W/m² | - |
| 1777579740 | 10° C | 71% | 1034.8 hPa | 0 mm | - | 0 W/m² | - |
| 1777579412 | 10° C | 70% | 1034.8 hPa | 0 mm | - | 0 W/m² | - |
| 1777579100 | 10° C | 70% | 1034.5 hPa | 0 mm | - | 0 W/m² | - |
| 1777578781 | 10.56° C | 70% | 1034.7 hPa | 0 mm | - | 0 W/m² | - |
| 1777578460 | 10° C | 71% | 1034.7 hPa | 0 mm | - | 0 W/m² | - |
| 1777578140 | 10° C | 71% | 1034.7 hPa | 0 mm | - | 0 W/m² | - |
| 1777577820 | 10.56° C | 70% | 1034.8 hPa | 0 mm | - | 0 W/m² | - |
| 1777577500 | 10.56° C | 68% | 1034.8 hPa | 0 mm | - | 0 W/m² | - |
| 1777577180 | 10.56° C | 70% | 1034.7 hPa | 0 mm | - | 0 W/m² | - |
| 1777576861 | 10.56° C | 69% | 1034.6 hPa | 0 mm | - | 0 W/m² | - |
| 1777576540 | 11.11° C | 68% | 1034.8 hPa | 0 mm | - | 0 W/m² | - |
| 1777576220 | 11.11° C | 67% | 1034.5 hPa | 0 mm | - | 0 W/m² | - |
| 1777575900 | 11.67° C | 66% | 1034.3 hPa | 0 mm | - | 0 W/m² | - |
| 1777575580 | 12.22° C | 64% | 1034.6 hPa | 0 mm | - | 0 W/m² | - |
| 1777575260 | 12.22° C | 63% | 1034.2 hPa | 0 mm | - | 0 W/m² | - |
| 1777574940 | 12.78° C | 61% | 1034.3 hPa | 0 mm | - | 0 W/m² | - |
* Rain latest hour (hover to see other rain measurements)
** Current wind speed in m/s (hover to see current wind gust speed)